Location: Beaurecueil
(43.5122°N, 5.5450°E)
Time: 01:22:52
(UTC+00:00)

CZ-2C R/B - Pass Details

Date: 18 September 2020
Orbit: 640 x 704 km, 98.4° (Epoch: 26 October)

Event Time Altitude Azimuth Distance (km) Brightness Sun altitude
Rises 20:00:06 0° 13° (NNE) 2,961 7.2 -24.8°
Reaches altitude 10° 20:02:18 10° 14° (NNE) 2,051 6.4 -25.2°
Enters shadow 20:05:30 47° 18° (NNE) 860 4.2 -25.7°
